[[{"header":{"parameterUnit":"m.s-1","parameterCategory":1,"la1":30.2991,"la2":30.254,"lo1":-89.0895,"lo2":-89.0444,"dy":0.0017,"dx":0.0017,"nx":28,"ny":28,"refTime":"2025-11-23T03:00:00:Z","depth":0,"parameterNumber":2,"parameterNumberName":"U-component_of_WINDS"},"data":[0,0,0,0,0,0,0,0,0,0,0,0,0,0,0,0,0,0,0,0,0,0,0,0,0,0,0,0,0,0,0,0,0,0,0,0,0,0,0,0,0,0,0,0,0,0,0,0,0,0,0,0,0,0,0,0,0,0,-3.8522,-3.8523,0,-3.8589,-3.859,-3.859,-3.8552,-3.8551,-3.8549,-3.8547,-3.8615,-3.8618,-3.8621,0,0,0,0,0,0,0,0,0,0,0,0,0,-3.8363,-3.8366,-3.8522,-3.8523,-3.8524,-3.8589,-3.859,-3.8591,-3.8553,-3.855,-3.8548,-3.8546,-3.8613,-3.8618,-3.8622,0,0,0,0,0,0,0,0,0,0,0,0,0,-3.8431,-3.8368,-3.8522,-3.8513,-3.8512,-3.8589,-3.859,-3.8591,-3.8553,-3.855,-3.8548,-3.8545,-3.8612,-3.8617,-3.8622,-3.8711,0,0,-3.8639,-3.8641,0,0,0,0,0,0,0,0,-3.8428,-3.8437,-3.8513,-3.8513,-3.8513,-3.8559,-3.8559,-3.8631,-3.8554,-3.8538,-3.8547,-3.8544,-3.8598,-3.8605,-3.8623,-3.8714,-3.8717,-3.8639,-3.8642,-3.8645,-3.8646,0,0,0,0,0,0,0,-3.8423,-3.8434,-3.8548,-3.8514,-3.8515,-3.8506,-3.8512,-3.8572,-3.8583,-3.8539,-3.8536,-3.8545,-3.8598,-3.8618,-3.8625,-3.8718,-3.8639,-3.8644,-3.8647,-3.8649,-3.8888,-3.8891,0,0,0,0,0,0,-3.8419,-3.8431,-3.8546,-3.855,-3.8463,-3.8511,-3.8518,-3.8547,-3.8582,-3.8585,-3.8547,-3.8543,-3.8611,-3.8618,-3.8627,-3.8733,-3.8645,-3.8649,-3.8653,-3.8885,-3.8888,-3.8892,0,0,0,0,0,0,-3.8416,-3.8429,-3.8544,-3.849,-3.8504,-3.8517,-3.855,-3.855,-3.857,-3.8588,-3.859,-3.8566,-3.8609,-3.8619,-3.8691,-3.8735,-3.8652,-3.8657,-3.8881,-3.8886,-3.889,-3.8947,0,0,0,0,0,0,-3.8411,-3.8428,-3.8461,-3.8491,-3.8507,-3.8606,-3.8552,-3.8554,-3.858,-3.8575,-3.8606,-3.8609,-3.8607,-3.8683,-3.8696,-3.8741,-3.8661,-3.8877,-3.8883,-3.8889,-3.8941,-3.8953,-3.8963,0,0,0,0,0,-3.8406,-3.8474,-3.8463,-3.8477,-3.8548,-3.8608,-3.8618,-3.8615,-3.8584,-3.8617,-3.8629,-3.8608,-3.8729,-3.8691,-3.8705,-3.8752,-3.8874,-3.8881,-3.8888,-3.8936,-3.8951,-3.8963,0,0,0,0,0,0,-3.8448,-3.8477,-3.8466,-3.8546,-3.8575,-3.8602,-3.8644,-3.863,-3.8668,-3.8662,-3.8657,-3.8664,-3.8739,-3.8753,-3.871,-3.8841,-3.8797,-3.8807,-3.8828,-3.8842,-3.8853,-3.8847,-3.8665,0,0,0,0,0,-3.8467,-3.8513,-3.8537,-3.8605,-3.8621,-3.863,-3.8656,-3.8652,-3.8682,-3.8694,-3.8711,-3.8741,-3.8786,-3.8815,-3.8858,-3.8945,-3.8951,-3.8984,-3.8995,-3.9004,-3.9012,-3.906,-3.9076,-3.8915,-3.8915,-3.8915,0,0,-3.8506,-3.8528,-3.8557,-3.8614,-3.8636,-3.8685,-3.8641,-3.8693,-3.8729,-3.8702,-3.877,-3.8785,-3.8818,-3.8898,-3.8934,-3.8912,-3.9059,-3.9013,-3.902,-3.9023,-3.9069,-3.9084,-3.9098,-3.892,-3.8919,-3.8918,0,0,-3.8601,-3.8622,-3.8682,-3.8706,-3.8741,-3.8748,-3.8763,-3.8793,-3.8801,-3.8871,-3.8852,-3.8896,-3.8973,-3.8998,-3.902,-3.9131,-3.9112,-3.9145,-3.9201,-3.9249,-3.9261,-3.9272,-3.9311,-3.9325,-3.9154,-3.9154,-3.9154,0,-3.8644,-3.8716,-3.8714,-3.877,-3.8796,-3.8776,-3.8837,-3.886,-3.8907,-3.8926,-3.8902,-3.9,-3.9021,-3.9107,-3.9135,-3.9154,-3.9171,-3.9139,-3.926,-3.9271,-3.9281,-3.9318,-3.9333,-3.9158,-3.9157,-3.9157,-3.9156,0,-3.8768,-3.8819,-3.8863,-3.891,-3.8942,-3.9,-3.9008,-3.9041,-3.9036,-3.9045,-3.9117,-3.9143,-3.9191,-3.9212,-3.9206,-3.9298,-3.9283,-3.926,-3.9214,-3.93,-3.9334,-3.9349,-3.9163,-3.9161,-3.916,-3.9159,0,0,-3.8886,-3.8935,-3.8951,-3.8973,-3.9013,-3.9052,-3.9111,-3.9158,-3.9187,-3.9222,-3.927,-3.9339,-3.9318,-3.9344,-3.9342,-3.9384,-3.947,-3.9355,-3.9356,-3.9375,-3.9573,-3.9589,-3.9605,-3.946,-3.9463,-3.9465,-3.957,0,-3.8983,-3.9084,-3.9087,-3.918,-3.9227,-3.9211,-3.9263,-3.9293,-3.9305,-3.9348,-3.9361,-3.941,-3.9379,-3.9395,-3.9436,-3.9451,-3.9509,-3.9444,-3.9505,-3.9507,-3.9494,-3.9623,-3.9639,-3.9737,-3.9583,-3.9586,-3.9587,0,-3.9108,-3.9148,-3.9246,-3.9281,-3.9301,-3.9346,-3.9392,-3.9433,-3.9469,-3.9475,-3.9506,-3.9499,-3.956,-3.9516,-3.96,-3.9556,-3.9582,-3.9594,-3.9598,-3.9601,-3.955,-3.9628,-3.9768,-3.9782,-3.9609,-3.9607,-3.9606,0,-3.9183,-3.9262,-3.9331,-3.9351,-3.9394,-3.9426,-3.9446,-3.9478,-3.9508,-3.9549,-3.9568,-3.9615,-3.9641,-3.9678,-3.9684,-3.9652,-3.9769,-3.9725,-3.9775,-3.9775,-3.9798,-3.9796,-3.9941,-3.9819,-3.9819,-3.9818,-3.9818,0,-3.9289,-3.9349,-3.9366,-3.9408,-3.9476,-3.948,-3.9548,-3.9565,-3.9595,-3.9641,-3.9631,-3.9675,-3.9682,-3.9728,-3.9734,-3.9803,-3.9815,-3.9821,-3.9822,-3.9821,-3.982,-3.9835,-3.9828,-3.9822,-3.9821,-3.9821,-3.982,0,-3.9383,-3.9396,-3.9471,-3.9507,-3.9518,-3.9566,-3.9597,-3.9638,-3.9651,-3.971,-3.9724,-3.9744,-3.9798,-3.9809,-3.9873,-3.9877,-3.9959,-3.9953,-3.9946,-3.9945,-3.9994,-3.9989,-4.0153,-4.0175,-4.004,-4.0041,-4.0042,0,-3.9448,-3.9494,-3.9537,-3.9567,-3.9588,-3.9638,-3.9669,-3.9676,-3.9709,-3.9755,-3.9791,-3.9844,-3.9886,-3.9973,-3.9993,-4.0043,-4.0037,-4.0092,-4.0044,-4.0043,-4.0037,-4.0033,-4.0038,-4.01,-4.0101,-4.0102,-4.0103,0,-3.9562,-3.9568,-3.9613,-3.9661,-3.9699,-3.9737,-3.9774,-3.98,-3.9813,-3.985,-3.9906,-3.9939,-4.0005,-4.0058,-4.0108,-4.0129,-4.0118,-4.0119,-4.0133,-4.0131,-4.0124,-4.0127,-3.9969,-4.0114,-4.0113,-4.0112,-4.0112,-4.0111,-3.9643,-3.9684,-3.9721,-3.9772,-3.9801,-3.9836,-3.9877,-3.9897,-3.9943,-3.9998,-4.0,-4.0061,-4.0098,-4.0164,-4.0189,-4.0237,-4.022,-4.024,-4.0245,-4.0249,-4.0253,-4.012,-4.0246,-4.0246,-4.0246,-4.0246,-4.0245,0,-3.9756,-3.978,-3.9827,-3.9879,-3.9921,-3.991,-3.9951,-3.9986,-4.0039,-4.0075,-4.0118,-4.0183,-4.0235,-4.0262,-4.0314,-4.0348,-4.0344,-4.0361,-4.0357,-4.0362,-4.0266,-4.0248,-4.0363,-4.0363,-4.0363,-4.0363,-4.0363,-4.0363,-3.9819,-3.9888,-3.9899,-3.9983,-4.0007,-4.0066,-4.0091,-4.0124,-4.0153,-4.0226,-4.027,-4.0287,-4.032,-4.0375,-4.0424,-4.043,-4.0449,-4.0468,-4.0472,-4.0381,-4.0369,-4.0357,-4.034,-4.0472,-4.0472,-4.0564,-4.0565,-4.0565]},{"header":{"parameterUnit":"m.s-1","parameterCategory":1,"la1":30.2991,"la2":30.254,"lo1":-89.0895,"lo2":-89.0444,"dy":0.0017,"dx":0.0017,"nx":28,"ny":28,"refTime":"2025-11-23T03:00:00:Z","depth":0,"parameterNumber":3,"parameterNumberName":"V-component_of_WINDS"},"data":[0,0,0,0,0,0,0,0,0,0,0,0,0,0,0,0,0,0,0,0,0,0,0,0,0,0,0,0,0,0,0,0,0,0,0,0,0,0,0,0,0,0,0,0,0,0,0,0,0,0,0,0,0,0,0,0,0,0,2.5393,2.5394,0,2.5557,2.5559,2.5561,2.564,2.564,2.564,2.564,2.5807,2.5811,2.5816,0,0,0,0,0,0,0,0,0,0,0,0,0,2.5148,2.5152,2.5392,2.5395,2.5397,2.5557,2.5559,2.5561,2.564,2.564,2.564,2.564,2.5805,2.5811,2.5816,0,0,0,0,0,0,0,0,0,0,0,0,0,2.5278,2.5154,2.5392,2.5455,2.5462,2.5556,2.5559,2.5562,2.564,2.564,2.564,2.5639,2.5804,2.581,2.5817,2.586,0,0,2.5838,2.584,0,0,0,0,0,0,0,0,2.527,2.5286,2.5444,2.5451,2.5459,2.5578,2.5534,2.5662,2.564,2.5572,2.564,2.5639,2.5731,2.5743,2.5774,2.5868,2.5875,2.5838,2.5842,2.5845,2.5847,0,0,0,0,0,0,0,2.5261,2.528,2.5458,2.5446,2.5455,2.5476,2.5494,2.5559,2.565,2.5578,2.5584,2.5603,2.5735,2.5768,2.5779,2.5878,2.5838,2.5844,2.5848,2.5851,2.602,2.602,0,0,0,0,0,0,2.5242,2.5272,2.5452,2.5463,2.5363,2.548,2.5501,2.554,2.5649,2.5666,2.5603,2.5606,2.5756,2.5771,2.5785,2.5847,2.5845,2.5851,2.5855,2.6019,2.602,2.602,0,0,0,0,0,0,2.5236,2.5257,2.5446,2.5369,2.5395,2.5485,2.5528,2.5543,2.5576,2.5668,2.5685,2.5619,2.5757,2.5776,2.5842,2.5853,2.5854,2.5861,2.6019,2.602,2.602,2.5967,0,0,0,0,0,0,2.5229,2.5255,2.5271,2.5369,2.5398,2.5499,2.5528,2.5546,2.5588,2.5593,2.5688,2.5704,2.5758,2.5832,2.5849,2.5863,2.5866,2.6018,2.6019,2.602,2.5968,2.5966,2.5964,0,0,0,0,0,2.522,2.5249,2.5272,2.5293,2.5421,2.55,2.5517,2.5579,2.5588,2.5607,2.5666,2.5701,2.5849,2.5838,2.5858,2.5874,2.6018,2.6019,2.602,2.5969,2.5966,2.5964,0,0,0,0,0,0,2.5149,2.5262,2.5289,2.535,2.5415,2.5513,2.5538,2.5573,2.5636,2.5639,2.5713,2.5734,2.5794,2.5841,2.5826,2.5924,2.5937,2.5942,2.5891,2.5889,2.5887,2.5875,2.5872,0,0,0,0,0,2.5141,2.5195,2.5291,2.5336,2.5367,2.5446,2.5483,2.5526,2.5595,2.5623,2.5687,2.5754,2.5816,2.5855,2.5917,2.5975,2.5998,2.5996,2.5994,2.5991,2.5995,2.6033,2.6034,2.6024,2.6024,2.6024,0,0,2.5123,2.5192,2.5222,2.5323,2.5378,2.5434,2.5469,2.5525,2.5568,2.5631,2.5699,2.5749,2.5828,2.5892,2.5923,2.5932,2.6004,2.5993,2.599,2.5996,2.6034,2.6035,2.6036,2.6024,2.6024,2.6024,0,0,2.5121,2.5178,2.5223,2.5278,2.5362,2.5415,2.5426,2.5519,2.5555,2.5625,2.5675,2.5726,2.5831,2.5886,2.5928,2.5951,2.5986,2.5969,2.5957,2.5993,2.5994,2.5996,2.6007,2.6009,2.5972,2.5972,2.5972,0,2.509,2.5175,2.5241,2.5296,2.5341,2.5403,2.545,2.55,2.5599,2.5629,2.5638,2.5773,2.583,2.591,2.5915,2.5946,2.5963,2.5959,2.5989,2.5991,2.5993,2.6004,2.6008,2.5969,2.597,2.597,2.597,0,2.5134,2.5192,2.5219,2.5315,2.5362,2.5413,2.5488,2.5528,2.5567,2.562,2.5692,2.5763,2.5843,2.5864,2.5902,2.595,2.5954,2.5974,2.599,2.599,2.6002,2.6007,2.5966,2.5967,2.5967,2.5968,0,0,2.509,2.5225,2.5233,2.528,2.5378,2.5425,2.5479,2.5558,2.5592,2.5659,2.5708,2.5797,2.5818,2.5865,2.591,2.5942,2.596,2.596,2.5963,2.596,2.6021,2.6006,2.601,2.5983,2.5984,2.5985,2.6015,0,2.5103,2.5205,2.5267,2.5344,2.5401,2.5462,2.551,2.5576,2.5627,2.5684,2.574,2.5803,2.5825,2.5855,2.5889,2.595,2.5973,2.5948,2.6031,2.6034,2.6012,2.6016,2.5999,2.6024,2.602,2.6021,2.6021,0,2.5132,2.52,2.5282,2.5378,2.5404,2.5446,2.5525,2.5577,2.5655,2.569,2.5745,2.5791,2.5853,2.5862,2.595,2.5932,2.597,2.6006,2.6008,2.602,2.6028,2.6029,2.6033,2.6037,2.6029,2.6028,2.6028,0,2.5096,2.5207,2.5272,2.5309,2.5421,2.545,2.5498,2.5575,2.562,2.5689,2.5719,2.5793,2.5835,2.5892,2.5958,2.5958,2.604,2.6054,2.6073,2.6072,2.6089,2.6087,2.6101,2.6109,2.6109,2.6109,2.6109,0,2.5105,2.5154,2.5257,2.5297,2.5355,2.5427,2.5482,2.5535,2.5604,2.5657,2.5713,2.5761,2.5844,2.5903,2.5955,2.6022,2.6039,2.6071,2.6085,2.6067,2.6064,2.6094,2.6095,2.611,2.611,2.611,2.6109,0,2.5074,2.5145,2.522,2.5322,2.5348,2.5386,2.5474,2.5516,2.5571,2.5637,2.5656,2.5743,2.5816,2.5888,2.5984,2.6019,2.6086,2.6103,2.6061,2.6069,2.6085,2.6083,2.612,2.613,2.6129,2.6129,2.6129,0,2.5076,2.5115,2.5222,2.5262,2.5309,2.5372,2.5418,2.5492,2.5538,2.5631,2.5663,2.574,2.5806,2.5919,2.5991,2.6066,2.6087,2.6095,2.6099,2.6081,2.6091,2.6089,2.6094,2.6093,2.6093,2.6092,2.6092,0,2.5073,2.5108,2.5172,2.5251,2.5305,2.537,2.5437,2.5467,2.5554,2.5603,2.5679,2.573,2.5831,2.5907,2.5992,2.6042,2.6083,2.6091,2.61,2.6083,2.6058,2.6075,2.6058,2.609,2.609,2.609,2.609,2.609,2.5061,2.51,2.5183,2.5254,2.5313,2.5375,2.5421,2.5483,2.5548,2.5636,2.5676,2.5753,2.5833,2.5951,2.6001,2.6063,2.6073,2.6085,2.6089,2.6091,2.6089,2.6047,2.6078,2.6078,2.6079,2.6079,2.6079,0,2.5064,2.512,2.5186,2.5279,2.5336,2.537,2.5447,2.5492,2.556,2.5631,2.5695,2.5784,2.586,2.5939,2.602,2.6055,2.6075,2.6073,2.6073,2.6084,2.6074,2.6059,2.6056,2.6056,2.6056,2.6056,2.6056,2.6056,2.5072,2.5142,2.5186,2.5286,2.5343,2.542,2.5461,2.552,2.5578,2.5675,2.5738,2.579,2.5866,2.5953,2.6024,2.6046,2.6074,2.6068,2.6094,2.6083,2.6085,2.6086,2.6073,2.6072,2.6072,2.6101,2.6101,2.6101]}]]